EXS57MA LCLK-EGPH

Flight info

Callsign EXS57MA
Flight time N/A
Altitude 36000
Route PHA1W PHA M31 GENOS DCT PEDER DCT EVENO DCT BENEM UN127 BIRPU DCT UFQUM UN127 LMO DCT EVIVI DCT EDIKA DCT BAVGA DCT OKANA DCT KOTUS DCT TONDO DCT BEGLA DCT DITIS DCT VARIK DCT KATCE DCT ANDIK DCT GODOS DCT AGPED AGPED1E
Aircraft B738/M-SDE2E3FGHIRWXY/LB1

Departure

Time N/A
Airport Larnaca International Airport (LCLK)

Arrival

Time 2026-05-03 21:49
Airport Edinburgh Airport (EGPH)
Time Latitude Longitude Altitude Speed Heading
2026-05-03 21:23 54.87848 -1.17842 31926 ft 412 kts 296°
2026-05-03 21:23 54.89218 -1.22111 31946 ft 408 kts 297°
2026-05-03 21:23 54.91961 -1.30677 31994 ft 403 kts 298°
2026-05-03 21:24 54.94618 -1.39008 32017 ft 384 kts 298°
2026-05-03 21:24 54.95923 -1.43110 31856 ft 386 kts 298°
2026-05-03 21:24 54.97156 -1.46997 31522 ft 388 kts 298°
2026-05-03 21:25 54.98465 -1.51126 31061 ft 387 kts 298°
2026-05-03 21:25 54.99765 -1.55234 30546 ft 385 kts 299°
2026-05-03 21:25 55.01032 -1.59245 30074 ft 381 kts 299°
2026-05-03 21:25 55.02298 -1.63262 29607 ft 378 kts 300°
2026-05-03 21:26 55.03568 -1.67295 29140 ft 374 kts 299°
2026-05-03 21:26 55.04813 -1.71253 28690 ft 370 kts 299°
2026-05-03 21:26 55.06036 -1.75144 28239 ft 367 kts 299°
2026-05-03 21:26 55.07262 -1.79056 27789 ft 363 kts 299°
2026-05-03 21:27 55.08465 -1.82902 27341 ft 360 kts 299°
2026-05-03 21:27 55.09656 -1.86718 26898 ft 357 kts 299°
2026-05-03 21:27 55.10844 -1.90529 26460 ft 353 kts 299°
2026-05-03 21:27 55.12016 -1.94293 26051 ft 349 kts 299°
2026-05-03 21:28 55.13169 -1.97926 25706 ft 345 kts 300°
2026-05-03 21:28 55.14376 -2.01609 25059 ft 349 kts 300°
2026-05-03 21:28 55.15585 -2.05252 24626 ft 346 kts 301°
2026-05-03 21:28 55.16790 -2.08874 24164 ft 344 kts 301°
2026-05-03 21:29 55.17995 -2.12505 23714 ft 341 kts 301°
2026-05-03 21:29 55.19185 -2.16105 23273 ft 339 kts 301°
2026-05-03 21:29 55.20361 -2.19679 22828 ft 337 kts 301°
2026-05-03 21:29 55.21514 -2.23191 22388 ft 335 kts 301°
2026-05-03 21:30 55.22664 -2.26706 21972 ft 332 kts 301°
2026-05-03 21:30 55.23816 -2.30235 21555 ft 329 kts 301°
2026-05-03 21:30 55.24943 -2.33694 21133 ft 327 kts 301°
2026-05-03 21:30 55.26066 -2.37144 20709 ft 325 kts 301°
2026-05-03 21:31 55.27171 -2.40544 20282 ft 323 kts 301°
2026-05-03 21:31 55.28275 -2.43946 19883 ft 320 kts 301°
2026-05-03 21:31 55.29376 -2.47339 19452 ft 319 kts 301°
2026-05-03 21:31 55.30466 -2.50707 19039 ft 317 kts 301°
2026-05-03 21:32 55.31562 -2.54102 18631 ft 314 kts 301°
2026-05-03 21:32 55.32635 -2.57436 18215 ft 312 kts 301°
2026-05-03 21:32 55.33700 -2.60742 17819 ft 310 kts 301°
2026-05-03 21:32 55.34758 -2.64031 17413 ft 308 kts 301°
2026-05-03 21:33 55.35796 -2.67265 17031 ft 306 kts 300°
2026-05-03 21:33 55.36842 -2.70519 16622 ft 304 kts 300°
2026-05-03 21:33 55.37838 -2.73629 16245 ft 302 kts 300°
2026-05-03 21:33 55.38875 -2.76868 15840 ft 301 kts 300°
2026-05-03 21:34 55.39898 -2.80068 15436 ft 299 kts 300°
2026-05-03 21:34 55.40915 -2.83251 15055 ft 297 kts 300°
2026-05-03 21:34 55.41924 -2.86416 14665 ft 295 kts 300°
2026-05-03 21:34 55.42917 -2.89539 14272 ft 294 kts 301°
2026-05-03 21:35 55.43912 -2.92670 13909 ft 291 kts 301°
2026-05-03 21:35 55.44904 -2.95781 13508 ft 290 kts 302°
2026-05-03 21:35 55.46053 -2.98653 13123 ft 287 kts 314°
2026-05-03 21:35 55.47673 -3.00671 12713 ft 284 kts 338°
2026-05-03 21:36 55.49536 -3.01744 12331 ft 282 kts 344°
2026-05-03 21:36 55.51408 -3.02673 11929 ft 282 kts 344°
2026-05-03 21:36 55.53304 -3.03653 11541 ft 280 kts 343°
2026-05-03 21:36 55.55127 -3.04682 11234 ft 276 kts 337°
2026-05-03 21:37 55.56665 -3.06629 10920 ft 273 kts 311°
2026-05-03 21:37 55.57726 -3.09408 10550 ft 273 kts 301°
2026-05-03 21:37 55.58640 -3.12325 10179 ft 272 kts 300°
2026-05-03 21:37 55.59531 -3.15240 9826 ft 270 kts 300°
2026-05-03 21:38 55.60429 -3.18183 9473 ft 269 kts 300°
2026-05-03 21:38 55.61299 -3.21051 9129 ft 267 kts 300°
2026-05-03 21:38 55.62178 -3.23960 8777 ft 265 kts 300°
2026-05-03 21:38 55.63040 -3.26830 8439 ft 263 kts 300°
2026-05-03 21:39 55.63887 -3.29657 8097 ft 262 kts 300°
2026-05-03 21:39 55.64738 -3.32502 7733 ft 261 kts 300°
2026-05-03 21:39 55.65586 -3.35339 7375 ft 260 kts 300°
2026-05-03 21:39 55.66433 -3.38180 7086 ft 256 kts 300°
2026-05-03 21:40 55.67254 -3.40935 6876 ft 249 kts 300°
2026-05-03 21:40 55.68045 -3.43607 6669 ft 243 kts 300°
2026-05-03 21:40 55.68821 -3.46217 6431 ft 238 kts 300°
2026-05-03 21:40 55.69600 -3.48826 6171 ft 234 kts 300°
2026-05-03 21:41 55.70350 -3.51347 5913 ft 232 kts 300°
2026-05-03 21:41 55.71098 -3.53866 5616 ft 230 kts 300°
2026-05-03 21:41 55.71837 -3.56362 5343 ft 228 kts 300°
2026-05-03 21:41 55.72581 -3.58864 5070 ft 226 kts 300°
2026-05-03 21:42 55.73311 -3.61294 4818 ft 224 kts 300°
2026-05-03 21:42 55.74049 -3.63736 4559 ft 222 kts 300°
2026-05-03 21:42 55.74795 -3.66230 4327 ft 235 kts 299°
2026-05-03 21:42 55.75554 -3.68763 4081 ft 232 kts 299°
2026-05-03 21:43 55.76287 -3.71212 3956 ft 226 kts 299°
2026-05-03 21:43 55.77179 -3.73424 3944 ft 225 kts 322°
2026-05-03 21:43 55.78620 -3.74379 3957 ft 215 kts 355°
2026-05-03 21:43 55.80101 -3.74453 3956 ft 211 kts
2026-05-03 21:44 55.81474 -3.73906 3953 ft 198 kts 26°
2026-05-03 21:44 55.82572 -3.72499 3959 ft 192 kts 43°
2026-05-03 21:44 55.83428 -3.70708 3955 ft 186 kts 52°
2026-05-03 21:44 55.84156 -3.68801 3956 ft 187 kts 55°
2026-05-03 21:45 55.84851 -3.66846 3919 ft 187 kts 56°
2026-05-03 21:45 55.85543 -3.64851 3678 ft 190 kts 56°
2026-05-03 21:45 55.86237 -3.62844 3393 ft 190 kts 57°
2026-05-03 21:45 55.86928 -3.60835 3115 ft 189 kts 57°
2026-05-03 21:46 55.87605 -3.58863 2851 ft 186 kts 57°
2026-05-03 21:46 55.88261 -3.56951 2580 ft 176 kts 57°
2026-05-03 21:46 55.88874 -3.55161 2349 ft 165 kts 57°
2026-05-03 21:46 55.89460 -3.53452 2125 ft 161 kts 58°
2026-05-03 21:47 55.90047 -3.51738 1896 ft 160 kts 58°
2026-05-03 21:47 55.90603 -3.50112 1729 ft 146 kts 59°
2026-05-03 21:47 55.91118 -3.48603 1462 ft 139 kts 59°
2026-05-03 21:47 55.91615 -3.47148 1295 ft 137 kts 58°
2026-05-03 21:48 55.92121 -3.45665 1098 ft 137 kts 58°
2026-05-03 21:48 55.92617 -3.44206 914 ft 136 kts 58°
2026-05-03 21:48 55.93109 -3.42749 722 ft 135 kts 59°
2026-05-03 21:48 55.93601 -3.41318 529 ft 136 kts 58°
2026-05-03 21:49 55.94104 -3.39873 348 ft 136 kts 58°
2026-05-03 21:49 55.94598 -3.38427 170 ft 135 kts 58°
2026-05-03 21:49 55.95035 -3.37135 142 ft 96 kts 58°
2026-05-03 21:49 55.95278 -3.36423 142 ft 46 kts 58°
2026-05-03 21:50 55.95435 -3.35961 142 ft 42 kts 59°
2026-05-03 21:50 55.95545 -3.35628 142 ft 10 kts 58°
2026-05-03 21:50 55.95557 -3.35528 142 ft 7 kts 114°
2026-05-03 21:50 55.95519 -3.35467 142 ft 7 kts 146°
2026-05-03 21:51 55.95480 -3.35425 142 ft 6 kts 149°
2026-05-03 21:51 55.95442 -3.35409 142 ft 5 kts 189°
2026-05-03 21:51 55.95414 -3.35458 142 ft 7 kts 238°
2026-05-03 21:51 55.95384 -3.35545 142 ft 10 kts 238°
2026-05-03 21:52 55.95340 -3.35673 142 ft 13 kts 238°
2026-05-03 21:52 55.95292 -3.35816 142 ft 13 kts 238°
2026-05-03 21:52 55.95246 -3.35950 142 ft 12 kts 238°
2026-05-03 21:52 55.95204 -3.36074 141 ft 10 kts 238°
2026-05-03 21:53 55.95167 -3.36184 142 ft 9 kts 238°
2026-05-03 21:53 55.95131 -3.36287 142 ft 10 kts 238°
2026-05-03 21:53 55.95092 -3.36401 142 ft 10 kts 238°
2026-05-03 21:53 55.95057 -3.36506 142 ft 9 kts 238°
2026-05-03 21:54 55.95024 -3.36604 142 ft 8 kts 238°
2026-05-03 21:54 55.94994 -3.36691 141 ft 7 kts 238°
2026-05-03 21:54 55.94967 -3.36770 141 ft 7 kts 239°
2026-05-03 21:54 55.94934 -3.36820 141 ft 6 kts 188°
2026-05-03 21:55 55.94888 -3.36792 141 ft 8 kts 153°
2026-05-03 21:55 55.94833 -3.36775 141 ft 7 kts 180°
2026-05-03 21:55 55.94803 -3.36763 141 ft 3 kts 117°
2026-05-03 21:55 55.94801 -3.36719 141 ft 3 kts 88°
2026-05-03 21:56 55.94801 -3.36675 141 ft 3 kts 87°
2026-05-03 21:56 55.94802 -3.36638 141 ft 0 kts 89°
2026-05-03 21:56 55.94802 -3.36639 141 ft 0 kts 89°